{"data":{"norad_id":59261,"epoch":"2026-05-25T03:05:30.219072Z","epoch_age_seconds":63149,"freshness":"FRESH","line1":"1 59261U 24050H   26145.12882198 -.00007327  00000+0 -23524-3 0  9990","line2":"2 59261  53.1596 185.8101 0000586  56.8248 303.2809 15.30236063122256","mean_motion":15.30236063,"eccentricity":5.86e-5,"inclination_deg":53.1596,"raan_deg":185.8101,"arg_perigee_deg":56.8248,"mean_anomaly_deg":303.2809,"bstar":-0.00023524,"rev_number":12225,"period_min":94.103127930269,"perigee_km":474.70579379494,"apogee_km":475.50899403791,"semimajor_km":6853.2443939164,"source":"CELESTRAK","updated_at":"2026-05-25T13:38:18.875101Z"}}